Home > Weather > Lubbock > Past weeks

Flag for USA Past Weather in Lubbock, Texas, USA — Yesterday and Last 2 Weeks

Now
93 °F

Scattered clouds.


Feels Like: 93 °F
Forecast: 72 / 96 °F
Wind: 8 mph from West

Location: Lubbock International Airport

Current Time: Jul 25, 2016 at 1:03:16 PM

Latest Report: Jul 25, 2016 at 11:53 AM


Visibility: 10 mi

Pressure: 29.93 "Hg (26.85 "Hg at 976m altitude)

Humidity: 33%

Dew Point: 60 °F

Location of LubbockLocation

Past Weather in Lubbock — Graph

°F

Lubbock Temperature Yesterday

Maximum temperature yesterday: 98 °F (at 2:53 PM)
Minimum temperature yesterday: 73 °F (at 5:53 AM)
Average temperature yesterday: 87 °F

High & Low Weather Summary for the Past Weeks

 TemperatureHumidityPressure
High108 °F (Jul 11, 4:53 PM)90% (Jul 15, 11:53 PM)30.11 "Hg (Jul 15, 11:53 PM)
Low68 °F (Jul 15, 4:53 AM)9% (Jul 12, 6:53 PM)29.56 "Hg (Jul 11, 6:53 PM)
Average86 °F41%29.87 "Hg
* Reported Jul 10 10:53 AM — Jul 25 10:53 AM, Lubbock, Weather by CustomWeather, © 2016

Note: Actual official high and low records may vary slightly from our data, if they occured in-between our weather recording intervals... More about our weather records

Advertising

Lubbock Weather History for the Previous 24 Hours

Scroll right to see more
 ConditionsComfort  
Time TempWeatherWind HumidityBarometerVisibility
10:53 AM
Mon, Jul 25
89 °FPassing clouds.6 mph38%29.93 "Hg10 mi
9:53 AM85 °FPassing clouds.7 mph45%29.94 "Hg10 mi
8:53 AM80 °FPartly sunny.No wind54%29.94 "Hg10 mi
7:53 AM74 °FPassing clouds.6 mph64%29.94 "Hg10 mi
6:53 AM69 °FPassing clouds.6 mph73%29.93 "Hg10 mi
5:53 AM74 °FPassing clouds.3 mph62%29.90 "Hg10 mi
4:53 AM75 °FClear.5 mph60%29.88 "Hg10 mi
3:53 AM77 °FClear.7 mph56%29.88 "Hg10 mi
2:53 AM77 °FPassing clouds.6 mph56%29.88 "Hg10 mi
1:53 AM79 °FPassing clouds.12 mph50%29.88 "Hg10 mi
12:53 AM79 °FPassing clouds.8 mph50%29.89 "Hg10 mi
11:53 PM
Sun, Jul 24
81 °FPassing clouds.7 mph47%29.88 "Hg10 mi
10:53 PM82 °FPassing clouds.7 mph46%29.87 "Hg10 mi
9:53 PM87 °FPassing clouds.6 mph35%29.84 "Hg10 mi
8:53 PM90 °FScattered clouds.8 mph31%29.81 "Hg10 mi
7:53 PM95 °FScattered clouds.14 mph25%29.79 "Hg10 mi
6:53 PM96 °FScattered clouds.8 mph23%29.79 "Hg10 mi
5:53 PM98 °FScattered clouds.9 mph20%29.80 "Hg10 mi
4:53 PM98 °FBroken clouds.10 mph22%29.81 "Hg10 mi
3:53 PM96 °FPartly sunny.13 mph23%29.83 "Hg10 mi
2:53 PM98 °FPartly sunny.10 mph23%29.84 "Hg10 mi
1:53 PM97 °FScattered clouds.10 mph25%29.86 "Hg10 mi
Weather by CustomWeather, © 2016

See weather overviewHow to use our weather pages